Cedar Bluff, VA

2:59 PM EST on February 21, 2017 (GMT -0500)
Tazewell County

Weather History for KJFZ - March, 2014

Change the Weather History Date:

Tuesday, March 11, 2014

  Actual Average (KBLF) Record (KBLF)
Temperature  
Mean Temperature 58 °F -  
Max Temperature 68 °F 51 °F 76 °F (2006)
Min Temperature 49 °F 33 °F 13 °F (1998)
Degree Days  
Heating Degree Days 6    
Growing Degree Days 8 (Base 50)    
Moisture  
Dew Point 37 °F    
Average Humidity 47    
Maximum Humidity 65    
Minimum Humidity 25    
Precipitation  
Precipitation 0.00 in - - ()
Sea Level Pressure  
Sea Level Pressure 29.81 in    
Wind  
Wind Speed 8 mph (SW)    
Max Wind Speed 13 mph    
Max Gust Speed 18 mph    
Visibility 10 miles    
Events      
Averages and records for this station are not official NWS values.
T = Trace of Precipitation, MM = Missing Value Source: NWS Daily Summary

Daily Weather History Graph

Daily Weather History Graph

Search for Another Location

Airport or City:

Trip Planner

Search our weather history database for the weather conditions in past years. The results will help you decide how hot, cold, wet, or windy it might be!

Date:

Astronomy

Mar. 11, 2014 Rise Set
Actual Time 7:44 AM EDT 7:30 PM EDT
Civil Twilight 7:18 AM EDT 7:56 PM EDT
Nautical Twilight 6:48 AM EDT 8:26 PM EDT
Astronomical Twilight 6:17 AM EDT 8:57 PM EDT
Moon 3:10 PM EDT (3/11) 4:31 AM EDT (3/11)
Length of Visible Light 12h 38m
Length of Day
11h 46m
Waxing Gibbous, 78% of the Moon is Illuminated
Mar 11
Waxing Gibbous
Mar 16
Full
Mar 23
Last Quarter
Mar 30
New
Apr 7
First Quarter

Hourly Weather History & Observations

Time (EDT) Temp. Dew Point Humidity Pressure Visibility Wind Dir Wind Speed Gust Speed Precip Events Conditions
12:00 AM 54.5 °F 40.5 °F 59% 29.86 in 10.0 mi WSW 6.9 mph - N/A   Clear
12:15 AM 54.5 °F 40.3 °F 59% 29.86 in 10.0 mi WSW 8.1 mph - N/A   Clear
12:35 AM 54.7 °F 40.3 °F 58% 29.86 in 10.0 mi SW 5.8 mph - N/A   Clear
12:55 AM 54.1 °F 40.5 °F 60% 29.86 in 10.0 mi WSW 8.1 mph - N/A   Clear
1:15 AM 53.4 °F 40.6 °F 62% 29.86 in 10.0 mi West 10.4 mph - N/A   Clear
1:35 AM 52.5 °F 40.5 °F 64% 29.86 in 10.0 mi WSW 10.4 mph - N/A   Clear
1:55 AM 53.6 °F 40.5 °F 61% 29.87 in 10.0 mi WSW 11.5 mph - N/A   Clear
2:15 AM 54.0 °F 40.3 °F 60% 29.87 in 10.0 mi SW 9.2 mph - N/A   Clear
2:35 AM 53.8 °F 39.9 °F 59% 29.87 in 10.0 mi WSW 8.1 mph - N/A   Clear
2:55 AM 53.8 °F 39.7 °F 59% 29.87 in 10.0 mi SW 6.9 mph - N/A   Clear
3:15 AM 54.0 °F 39.4 °F 58% 29.86 in 10.0 mi SW 9.2 mph - N/A   Clear
3:40 AM 53.2 °F 38.8 °F 58% 29.86 in 10.0 mi WSW 8.1 mph - N/A   Clear
3:55 AM 53.1 °F 38.3 °F 57% 29.85 in 10.0 mi WSW 6.9 mph - N/A   Clear
4:15 AM 53.1 °F 37.9 °F 57% 29.85 in 10.0 mi WSW 6.9 mph - N/A   Clear
4:35 AM 53.1 °F 37.6 °F 56% 29.85 in 10.0 mi WSW 8.1 mph - N/A   Clear
4:55 AM 52.9 °F 37.4 °F 56% 29.84 in 10.0 mi WSW 5.8 mph - N/A   Clear
5:15 AM 52.5 °F 37.6 °F 57% 29.84 in 10.0 mi WSW 9.2 mph - N/A   Clear
5:35 AM 51.6 °F 38.3 °F 60% 29.84 in 10.0 mi WSW 10.4 mph - N/A   Clear
5:55 AM 51.3 °F 38.7 °F 62% 29.84 in 10.0 mi WSW 10.4 mph - N/A   Clear
6:15 AM 51.3 °F 38.1 °F 61% 29.84 in 10.0 mi WSW 6.9 mph - N/A   Clear
6:35 AM 51.1 °F 37.8 °F 60% 29.84 in 10.0 mi WSW 9.2 mph - N/A   Clear
6:55 AM 50.9 °F 37.8 °F 61% 29.85 in 10.0 mi WSW 8.1 mph - N/A   Clear
7:20 AM 49.6 °F 37.6 °F 63% 29.85 in 10.0 mi WSW 5.8 mph - N/A   Clear
7:35 AM 49.3 °F 37.9 °F 65% 29.85 in 10.0 mi WSW 6.9 mph - N/A   Clear
7:55 AM 49.5 °F 37.9 °F 65% 29.86 in 10.0 mi WSW 10.4 mph - N/A   Clear
8:15 AM 49.1 °F 37.8 °F 65% 29.86 in 10.0 mi WSW 10.4 mph - N/A   Clear
8:35 AM 49.6 °F 37.6 °F 63% 29.86 in 10.0 mi WSW 6.9 mph - N/A   Clear
8:55 AM 50.4 °F 37.8 °F 62% 29.86 in 10.0 mi WSW 8.1 mph - N/A   Clear
9:15 AM 51.1 °F 38.1 °F 61% 29.86 in 10.0 mi WSW 8.1 mph - N/A   Clear
9:35 AM 53.1 °F 37.9 °F 57% 29.85 in 10.0 mi SW 8.1 mph - N/A   Clear
9:55 AM 53.6 °F 38.7 °F 57% 29.85 in 10.0 mi WSW 8.1 mph - N/A   Clear
10:15 AM 54.3 °F 39.6 °F 57% 29.86 in 10.0 mi West 9.2 mph - N/A   Clear
10:35 AM 55.2 °F 40.1 °F 57% 29.86 in 10.0 mi West 8.1 mph 18.4 mph N/A   Clear
10:55 AM 56.5 °F 40.5 °F 55% 29.86 in 10.0 mi WNW 5.8 mph - N/A   Clear
11:15 AM 57.2 °F 40.8 °F 54% 29.86 in 10.0 mi WSW 9.2 mph - N/A   Clear
11:35 AM 57.6 °F 40.6 °F 53% 29.85 in 10.0 mi West 8.1 mph - N/A   Clear
11:55 AM 59.5 °F 40.3 °F 49% 29.84 in 10.0 mi West 10.4 mph - N/A   Clear
12:15 PM 59.7 °F 39.2 °F 47% 29.83 in 10.0 mi West 10.4 mph 16.1 mph N/A   Clear
12:35 PM 59.4 °F 36.9 °F 43% 29.82 in 10.0 mi West 9.2 mph 17.3 mph N/A   Clear
12:55 PM 60.8 °F 39.4 °F 45% 29.82 in 10.0 mi West 9.2 mph - N/A   Clear
1:15 PM 61.5 °F 39.9 °F 45% 29.81 in 10.0 mi WSW 8.1 mph 17.3 mph N/A   Clear
1:35 PM 62.2 °F 38.5 °F 41% 29.80 in 10.0 mi South 6.9 mph - N/A   Clear
1:55 PM 63.3 °F 38.5 °F 40% 29.80 in 10.0 mi SW 8.1 mph - N/A   Clear
2:15 PM 63.5 °F 36.0 °F 36% 29.79 in 10.0 mi SSW 10.4 mph - N/A   Clear
2:35 PM 63.7 °F 37.6 °F 38% 29.77 in 10.0 mi WSW 8.1 mph - N/A   Clear
2:55 PM 66.2 °F 37.4 °F 35% 29.77 in 10.0 mi WSW 12.7 mph 17.3 mph N/A   Clear
3:15 PM 65.8 °F 34.9 °F 32% 29.77 in 10.0 mi SW 10.4 mph - N/A   Clear
3:35 PM 67.1 °F 32.7 °F 28% 29.76 in 10.0 mi SW 10.4 mph 17.3 mph N/A   Clear
3:55 PM 67.6 °F 33.4 °F 28% 29.76 in 10.0 mi SW 8.1 mph 16.1 mph N/A   Clear
4:15 PM 68.4 °F 31.3 °F 25% 29.75 in 10.0 mi SW 10.4 mph - N/A   Clear
4:35 PM 67.3 °F 32.4 °F 27% 29.75 in 10.0 mi WSW 6.9 mph 16.1 mph N/A   Clear
4:55 PM 68.0 °F 33.4 °F 28% 29.74 in 10.0 mi West 8.1 mph - N/A   Clear
5:15 PM 68.4 °F 34.2 °F 28% 29.74 in 10.0 mi SW 9.2 mph - N/A   Clear
5:35 PM 68.0 °F 33.4 °F 28% 29.74 in 10.0 mi SSW 6.9 mph - N/A   Clear
5:55 PM 67.5 °F 33.8 °F 29% 29.74 in 10.0 mi SW 6.9 mph - N/A   Clear
6:15 PM 67.3 °F 34.7 °F 30% 29.73 in 10.0 mi SW 4.6 mph - N/A   Clear
6:35 PM 67.1 °F 34.7 °F 30% 29.74 in 10.0 mi WSW 10.4 mph - N/A   Clear
6:55 PM 66.7 °F 33.4 °F 29% 29.73 in 10.0 mi SW 5.8 mph - N/A   Clear
7:15 PM 65.5 °F 34.0 °F 31% 29.74 in 10.0 mi SW 6.9 mph - N/A   Clear
7:35 PM 65.1 °F 33.8 °F 31% 29.74 in 10.0 mi SW 5.8 mph - N/A   Clear
7:55 PM 64.2 °F 33.8 °F 32% 29.74 in 10.0 mi SW 5.8 mph - N/A   Clear
8:15 PM 63.1 °F 34.0 °F 34% 29.74 in 10.0 mi Calm Calm - N/A   Clear
8:35 PM 62.6 °F 34.0 °F 34% 29.74 in 10.0 mi South 4.6 mph - N/A   Clear
8:55 PM 62.8 °F 34.0 °F 34% 29.74 in 10.0 mi SSW 5.8 mph - N/A   Clear
9:15 PM 62.2 °F 34.3 °F 35% 29.75 in 10.0 mi SSW 4.6 mph - N/A   Clear
9:35 PM 62.1 °F 35.2 °F 37% 29.75 in 10.0 mi SSW 4.6 mph - N/A   Clear
9:55 PM 62.1 °F 36.0 °F 38% 29.75 in 10.0 mi SSW 6.9 mph - N/A   Clear
10:15 PM 61.7 °F 36.1 °F 39% 29.75 in 10.0 mi SSW 5.8 mph - N/A   Clear
10:35 PM 62.1 °F 36.5 °F 39% 29.74 in 10.0 mi SSW 6.9 mph - N/A   Clear
10:55 PM 61.7 °F 36.5 °F 39% 29.73 in 10.0 mi South 5.8 mph - N/A   Clear
11:15 PM 62.1 °F 36.1 °F 38% 29.73 in 10.0 mi SSW 5.8 mph - N/A   Mostly Cloudy
11:35 PM 61.7 °F 36.0 °F 38% 29.73 in 10.0 mi SSW 6.9 mph - N/A   Scattered Clouds
11:55 PM 61.7 °F 36.3 °F 39% 29.72 in 10.0 mi SW 8.1 mph - N/A   Clear